Regional Weather Roundup
Issued by NWS

Home | Current Version | Previous Version | Graphics & Text | Print | Product List | Glossary On
Versions: 1 2 3 4 5 6 7 8 9 10 11 12 13 14 15 16 17 18 19 20 21 22 23 24 25 26 27 28 29 30 31 32 33 34 35 36 37 38 39 40 41 42 43 44 45 46 47 48 49 50
000
ASUS43 KLOT 020108
RWRIL

ILLINOIS REGIONAL WEATHER ROUNDUP
NATIONAL WEATHER SERVICE CHICAGO/ROMEOVILLE IL
800 PM CDT TUE SEP 01 2015

NOTE: "FAIR" INDICATES FEW OR NO CLOUDS BELOW 12,000 FEET WITH NO
SIGNIFICANT WEATHER AND/OR OBSTRUCTIONS TO VISIBILITY.

* THESE STATIONS ARE NOT UNDER NWS QUALITY CONTROL. THEY ALSO MAY NOT
  REPORT WEATHER SUCH AS PRECIPITATION OR FOG.

ILZ001-002-007-009-015-016-024-020200-
NORTHWEST ILLINOIS

CITY           SKY/WX    TMP DP  RH WIND       PRES   REMARKS
MOLINE         CLEAR     81  71  71 S6        29.98S HX  85
STERLING*      CLEAR     79  73  83 CALM      29.98R HX  82
SAVANNA*       CLEAR     81  71  71 SW3       29.98R HX  84
$$

ILZ003-004-008-010-011-017-018-020200-
NORTH CENTRAL ILLINOIS

CITY           SKY/WX    TMP DP  RH WIND       PRES   REMARKS
ROCKFORD       PTCLDY    78  71  79 S6        30.00R HX  80
FREEPORT*      CLEAR     79  71  75 SW10      30.00S HX  82
ROCHELLE*      CLEAR     75  72  89 S7        30.01S
DE KALB*       CLEAR     76  72  87 S7        30.02R
PERU*          CLEAR     81  69  66 S5        30.01S HX  84
$$

ILZ005-006-012>014-019>023-020200-
NORTHEAST ILLINOIS

CITY           SKY/WX    TMP DP  RH WIND       PRES   REMARKS
CHICAGO-OHARE  PTCLDY    83  72  69 S8        30.00R HX  88
CHICAGO-MIDWAY PTCLDY    86  71  60 S8        30.01R HX  91
AURORA         CLEAR     80  73  79 S6        30.02R HX  84
LANSING*       CLEAR     79  71  77 S10       30.03R HX  81
JOLIET*        CLEAR     83  74  76 S6        30.02R HX  89
WAUKEGAN       CLEAR     78  72  81 S7        29.99R HX  80
DUPAGE AIRPORT CLEAR     79  72  79 S6        30.01R HX  82
KANKAKEE*      CLEAR     77  73  86 S6        30.05R
WHEELING       CLEAR     84  71  65 S7        30.01R HX  89
MORRIS*        CLEAR     78  73  83 S6        30.01R HX  81
ROMEOVILLE*    CLEAR     78  71  78 S8        30.02R HX  81
NORTHERLY ISL    N/A     84  69  60 S9          N/A  HX  88
$$

LMZ740>746-020200-
SOUTHERN LAKE MICHIGAN

STATION/POSITION SKY/WX   TEMP    WIND        PRES    VSBY  WAVE
                          AIR SEA DIR/SP/G                  HT/PER
                          (F)     (DEG/KT/KT) (MB)    (MI)  (FT/S)
SOUTHERN BUOY              74 70  180/ 10/ 12 1015.2R
WILMETTE HARBOR            73 60   10/  6/  8   N/A           1
HARRISON CRIB              83     190/ 13/ 16   N/A
BURNHAM HARBOR             84     190/  9/ 11   N/A
CALUMET HARBOR             84     200/  6/ 10   N/A
BURNS HARBOR               83     180/  8/ 12 1016.9R
MICHIGAN CITY              82     170/  8/  9   N/A
MICHIGAN CITY 6N           78 73  210/  8/ 10   N/A           1
ST. JOSEPH                 77 73  220/  6/  6   N/A           1
$$

ILZ025>027-034>036-040-047-049-050-058-095>099-020200-
WEST-CENTRAL ILLINOIS

CITY           SKY/WX    TMP DP  RH WIND       PRES   REMARKS
QUINCY         CLEAR     82  68  62 S7        30.02R HX  85
GALESBURG*     CLEAR     78  71  79 S3        30.01R
MACOMB*        CLEAR     79  69  73 S5        30.03S HX  81
JACKSONVILLE*  CLEAR     82  70  67 S5        30.04R HX  86
PITTSFIELD*    CLEAR     80  72  75 S5        30.05R HX  84
$$

ILZ028>032-037-038-041>044-048-051>054-059>061-020200-
CENTRAL ILLINOIS

CITY           SKY/WX    TMP DP  RH WIND       PRES   REMARKS
PONTIAC        CLEAR     80  73  81 S5        30.04R HX  84
BLOOMINGTON    MOCLDY    77  73  87 SE12      30.07R
DECATUR        MOCLDY    83  70  64 S5        30.06R HX  87
PEORIA         CLEAR     82  68  62 SW6       30.02R HX  85
LACON*         CLEAR     79  69  72 CALM      30.00S HX  81
LINCOLN*       PTCLDY    84  67  57 CALM      30.03R HX  87
SPRINGFIELD    CLEAR     82  69  64 SW6       30.04R HX  85
TAYLORVILLE    PTCLDY    77  70  78 S5        30.06R
$$

ILZ033-039-045-046-055>057-062-063-020200-
EAST-CENTRAL ILLINOIS

CITY           SKY/WX    TMP DP  RH WIND       PRES   REMARKS
CHAMPAIGN      CLOUDY    75  70  84 SE3       30.09R THUNDER
RANTOUL*       PTCLDY    78  73  85 SW8       30.08R HX  80
MATTOON        PTCLDY    78  67  68 S5        30.07R HX  80
PARIS*         CLEAR     74  71  89 S3        30.09R
$$

ILZ079-100>102-020200-
SOUTHWEST ILLINOIS

CITY           SKY/WX    TMP DP  RH WIND       PRES   REMARKS
ALTON          CLEAR     77  70  78 SE6       30.05R
BELLEVILLE     CLEAR     79  73  81 E2        30.05R HX  83
CAHOKIA*       CLEAR     81  71  71 S5        30.04S HX  85
SPARTA*        CLEAR     80  72  76 S3        30.08R HX  83
$$

ILZ064>066-069>071-074>076-080>082-084>086-088>090-092>094-020200-
SOUTH-CENTRAL ILLINOIS

CITY           SKY/WX    TMP DP  RH WIND       PRES   REMARKS
CARBONDALE     CLEAR     76  72  87 SE3       30.08R
CAIRO*         PTCLDY    76  74  94 CALM      30.08R
EFFINGHAM*     CLEAR     77  64  65 SE3       30.09R
MARION         PTCLDY    77  72  83 CALM      30.09R
MT. VERNON     CLEAR     77  68  73 CALM      30.08S
CENTRALIA*     CLEAR     77  73  88 S5        30.07R
SALEM*         CLEAR     80  71  73 CALM      30.08R HX  83
METROPOLIS*    PTCLDY    75  73  93 CALM      30.09R
$$

ILZ067-068-072-073-078-083-087-091-020200-
SOUTHEAST ILLINOIS

CITY           SKY/WX    TMP DP  RH WIND       PRES   REMARKS
LAWRENCEVILLE  PTCLDY    77  70  79 CALM      30.08R
FLORA*         PTCLDY    77  70  78 CALM      30.08R
FAIRFIELD*     CLEAR     78  72  82 CALM      30.07R
HARRISBURG*    PTCLDY    77  71  81 CALM      30.08S
ROBINSON*      MOCLDY    74  71  90 CALM      30.09R
CARMI*         PTCLDY    76  71  86 S5        30.08R
$$

ABBREVIATIONS USED IN REMARKS
   TC - TEMPERATURE IN CELSIUS
  WCI - WIND CHILL INDEX
   HX - HEAT INDEX
  VSB - VISIBILITY
$$



USA.gov is the U.S. government's official web portal to all federal, state and local government web resources and services.